DELTA 4 R/B

基本信息
目录编号:
40102
目录名称:
DELTA 4 R/B
国际标识:
2014-043D
轨道中心:
EARTH
物体状态:
在轨
发射日期:
2014-07-28 UTC
国别:
美国 (US)
轨道信息
数据来源: 国际轨道数据
星历时间: 2026-07-13T06:26:30+0800
半长轴: 42549.2km
偏心率: 0.0008958
轨道倾角: 9.259°
近地点辐角: 308.756°
升交点赤经: 57.080°
平近点角: 51.152°
近地点: 36132.947km
远地点: 36209.179km
周期: 1455.784分钟
每日圈数: 0.989158
详细信息
发射场:
AFETR
轨道高度:
HEO
数据来源:
AOE Integration Group
参考系:
TEME
时间系统:
UTC
历元类型:
SGP4
2D轨道图
3D轨道图
轨道高度分析图
轨道倾角分析图
轨道综合分析图
查看轨道综合分析图